AAL1105 KCLT-KLAX

Flight info

Callsign AAL1105
Flight time N/A
Altitude 30000
Route BOBZY5 BNA LIT J14 KOMMA/N0459F320 J14 IRW J6 DRK J231 HIPPI GABBL HLYWD1
Aircraft A321/M-SDE3FGHIRWY/LB1

Departure

Time N/A
Airport Charlotte Douglas International Airport (KCLT)

Arrival

Time 2026-04-20 00:33
Airport Los Angeles International Airport (KLAX)
Time Latitude Longitude Altitude Speed Heading
2026-04-19 23:34 34.84085 -110.87993 34057 ft 421 kts 263°
2026-04-19 23:35 34.83518 -110.95103 34051 ft 422 kts 263°
2026-04-19 23:35 34.82947 -111.02210 34040 ft 422 kts 263°
2026-04-19 23:36 34.82365 -111.09322 34039 ft 422 kts 263°
2026-04-19 23:36 34.81777 -111.16436 34048 ft 422 kts 263°
2026-04-19 23:37 34.81196 -111.23555 34051 ft 422 kts 263°
2026-04-19 23:37 34.80614 -111.30658 34054 ft 423 kts 263°
2026-04-19 23:38 34.80022 -111.37772 34065 ft 422 kts 262°
2026-04-19 23:38 34.79420 -111.44885 34068 ft 423 kts 262°
2026-04-19 23:39 34.78815 -111.51995 34075 ft 423 kts 262°
2026-04-19 23:39 34.78202 -111.59111 34080 ft 423 kts 262°
2026-04-19 23:40 34.77593 -111.66233 34089 ft 423 kts 262°
2026-04-19 23:40 34.76990 -111.73317 34095 ft 424 kts 262°
2026-04-19 23:41 34.76366 -111.80494 34046 ft 424 kts 261°
2026-04-19 23:41 34.75731 -111.87580 34065 ft 426 kts 260°
2026-04-19 23:42 34.75096 -111.94748 34049 ft 427 kts 260°
2026-04-19 23:42 34.74462 -112.01941 34032 ft 428 kts 260°
2026-04-19 23:43 34.73828 -112.09141 33998 ft 428 kts 260°
2026-04-19 23:43 34.73181 -112.16338 34037 ft 429 kts 259°
2026-04-19 23:44 34.72524 -112.23551 34071 ft 429 kts 259°
2026-04-19 23:44 34.71860 -112.30763 34105 ft 430 kts 259°
2026-04-19 23:45 34.71197 -112.37982 34113 ft 430 kts 259°
2026-04-19 23:45 34.70528 -112.45196 34106 ft 430 kts 259°
2026-04-19 23:46 34.69939 -112.51206 34112 ft 430 kts 258°
2026-04-19 23:46 34.69096 -112.58453 34096 ft 430 kts 257°
2026-04-19 23:47 34.68211 -112.65652 34046 ft 431 kts 257°
2026-04-19 23:47 34.67355 -112.72818 34013 ft 432 kts 258°
2026-04-19 23:48 34.66506 -112.80046 33978 ft 433 kts 258°
2026-04-19 23:48 34.65635 -112.87287 33955 ft 434 kts 257°
2026-04-19 23:49 34.64756 -112.94532 33941 ft 434 kts 257°
2026-04-19 23:49 34.63886 -113.01796 33936 ft 435 kts 257°
2026-04-19 23:50 34.63006 -113.09074 33941 ft 436 kts 257°
2026-04-19 23:50 34.62120 -113.16347 33931 ft 436 kts 257°
2026-04-19 23:51 34.61229 -113.23636 33918 ft 437 kts 257°
2026-04-19 23:51 34.60336 -113.30930 33909 ft 437 kts 257°
2026-04-19 23:52 34.59432 -113.38220 33916 ft 438 kts 257°
2026-04-19 23:52 34.58528 -113.45532 33903 ft 438 kts 258°
2026-04-19 23:53 34.57634 -113.52849 33905 ft 438 kts 258°
2026-04-19 23:53 34.56722 -113.60155 33885 ft 439 kts 258°
2026-04-19 23:54 34.55808 -113.67478 33886 ft 439 kts 258°
2026-04-19 23:54 34.54994 -113.74837 33880 ft 440 kts 259°
2026-04-19 23:55 34.54208 -113.82197 33870 ft 441 kts 259°
2026-04-19 23:55 34.53393 -113.89571 33864 ft 442 kts 258°
2026-04-19 23:56 34.52552 -113.96962 33854 ft 443 kts 258°
2026-04-19 23:56 34.51708 -114.04388 33860 ft 444 kts 258°
2026-04-19 23:57 34.50316 -114.11646 33867 ft 441 kts 252°
2026-04-19 23:57 34.48787 -114.18848 33875 ft 441 kts 252°
2026-04-19 23:58 34.47258 -114.26043 33880 ft 441 kts 252°
2026-04-19 23:58 34.45735 -114.33230 33885 ft 440 kts 252°
2026-04-19 23:59 34.44205 -114.40407 33881 ft 439 kts 252°
2026-04-19 23:59 34.42674 -114.47558 33880 ft 438 kts 252°
2026-04-20 00:00 34.41146 -114.54691 33877 ft 437 kts 252°
2026-04-20 00:00 34.39610 -114.61808 33873 ft 436 kts 252°
2026-04-20 00:01 34.38078 -114.68903 33873 ft 435 kts 252°
2026-04-20 00:02 34.35780 -114.79526 33872 ft 435 kts 252°
2026-04-20 00:02 34.34235 -114.86603 33868 ft 435 kts 252°
2026-04-20 00:03 34.32684 -114.93673 33863 ft 435 kts 252°
2026-04-20 00:03 34.31130 -115.00757 33861 ft 435 kts 252°
2026-04-20 00:04 34.29593 -115.07780 33854 ft 436 kts 252°
2026-04-20 00:04 34.28035 -115.14859 33853 ft 436 kts 252°
2026-04-20 00:05 34.26472 -115.21929 33860 ft 435 kts 252°
2026-04-20 00:05 34.24942 -115.29000 33852 ft 435 kts 252°
2026-04-20 00:06 34.23444 -115.36091 33850 ft 435 kts 252°
2026-04-20 00:06 34.21947 -115.43152 33847 ft 434 kts 252°
2026-04-20 00:07 34.20434 -115.50221 33844 ft 434 kts 252°
2026-04-20 00:07 34.18914 -115.57281 33839 ft 435 kts 252°
2026-04-20 00:08 34.17392 -115.64355 33843 ft 435 kts 252°
2026-04-20 00:08 34.16145 -115.71504 33844 ft 437 kts 261°
2026-04-20 00:09 34.15448 -115.78807 33856 ft 437 kts 261°
2026-04-20 00:09 34.14738 -115.86085 33890 ft 437 kts 261°
2026-04-20 00:10 34.14029 -115.93378 33917 ft 437 kts 261°
2026-04-20 00:10 34.13320 -116.00656 33938 ft 436 kts 261°
2026-04-20 00:11 34.12617 -116.07861 33957 ft 435 kts 261°
2026-04-20 00:11 34.11901 -116.15107 33961 ft 434 kts 261°
2026-04-20 00:11 34.11536 -116.18774 33724 ft 433 kts 261°
2026-04-20 00:12 34.11177 -116.22370 33453 ft 432 kts 261°
2026-04-20 00:12 34.10816 -116.25989 32762 ft 434 kts 261°
2026-04-20 00:12 34.10469 -116.29473 31979 ft 436 kts 261°
2026-04-20 00:12 34.10102 -116.33109 31377 ft 435 kts 261°
2026-04-20 00:13 34.09719 -116.36743 30822 ft 437 kts 260°
2026-04-20 00:13 34.09331 -116.40318 30243 ft 435 kts 260°
2026-04-20 00:13 34.08990 -116.43451 29742 ft 433 kts 260°
2026-04-20 00:13 34.08600 -116.47038 29166 ft 430 kts 260°
2026-04-20 00:14 34.08215 -116.50596 28626 ft 427 kts 260°
2026-04-20 00:14 34.07833 -116.54124 28086 ft 423 kts 260°
2026-04-20 00:14 34.07455 -116.57624 27553 ft 418 kts 260°
2026-04-20 00:14 34.07093 -116.61039 27033 ft 413 kts 261°
2026-04-20 00:15 34.06764 -116.64458 26514 ft 409 kts 262°
2026-04-20 00:15 34.06452 -116.67893 25994 ft 405 kts 262°
2026-04-20 00:15 34.06157 -116.71213 25493 ft 401 kts 262°
2026-04-20 00:15 34.05857 -116.74579 24982 ft 397 kts 262°
2026-04-20 00:16 34.05562 -116.77872 24490 ft 394 kts 262°
2026-04-20 00:16 34.05268 -116.81088 24000 ft 391 kts 262°
2026-04-20 00:16 34.04957 -116.84385 23504 ft 388 kts 262°
2026-04-20 00:16 34.04654 -116.87562 22948 ft 385 kts 262°
2026-04-20 00:17 34.04331 -116.90753 22482 ft 381 kts 260°
2026-04-20 00:17 34.03951 -116.93904 22000 ft 378 kts 259°
2026-04-20 00:17 34.03535 -116.97023 21524 ft 376 kts 258°
2026-04-20 00:17 34.03107 -117.00121 21046 ft 374 kts 258°
2026-04-20 00:18 34.02680 -117.03200 20581 ft 372 kts 258°
2026-04-20 00:18 34.02266 -117.06312 20098 ft 370 kts 259°
2026-04-20 00:18 34.01889 -117.09373 19627 ft 369 kts 259°
2026-04-20 00:18 34.01540 -117.12391 19166 ft 367 kts 259°
2026-04-20 00:19 34.01189 -117.15472 18695 ft 366 kts 259°
2026-04-20 00:19 34.00845 -117.18456 18213 ft 364 kts 259°
2026-04-20 00:19 34.00493 -117.21464 17759 ft 362 kts 259°
2026-04-20 00:19 34.00132 -117.24464 17295 ft 360 kts 259°
2026-04-20 00:20 33.99774 -117.27437 16839 ft 358 kts 259°
2026-04-20 00:20 33.99418 -117.30401 16379 ft 356 kts 259°
2026-04-20 00:20 33.99069 -117.33349 15910 ft 354 kts 259°
2026-04-20 00:20 33.98724 -117.36276 15467 ft 352 kts 259°
2026-04-20 00:21 33.98383 -117.39192 15018 ft 350 kts 259°
2026-04-20 00:21 33.98046 -117.42081 14572 ft 348 kts 259°
2026-04-20 00:21 33.97710 -117.44957 14132 ft 346 kts 259°
2026-04-20 00:21 33.97425 -117.47796 13829 ft 339 kts 265°
2026-04-20 00:22 33.97566 -117.50602 13545 ft 336 kts 277°
2026-04-20 00:22 33.98047 -117.53360 13088 ft 336 kts 279°
2026-04-20 00:22 33.98537 -117.56099 12587 ft 334 kts 279°
2026-04-20 00:22 33.99023 -117.58827 12116 ft 331 kts 279°
2026-04-20 00:23 33.99501 -117.61526 11795 ft 328 kts 279°
2026-04-20 00:23 33.99977 -117.64213 11236 ft 329 kts 279°
2026-04-20 00:23 34.00442 -117.66914 10733 ft 327 kts 276°
2026-04-20 00:23 34.00550 -117.69618 10378 ft 318 kts 263°
2026-04-20 00:24 34.00300 -117.72195 10259 ft 304 kts 260°
2026-04-20 00:24 34.00054 -117.74689 10018 ft 296 kts 260°
2026-04-20 00:24 33.99821 -117.77128 9636 ft 292 kts 261°
2026-04-20 00:24 33.99592 -117.79545 9252 ft 291 kts 260°
2026-04-20 00:25 33.99361 -117.81970 8878 ft 289 kts 260°
2026-04-20 00:25 33.99335 -117.82237 8839 ft 289 kts 260°
2026-04-20 00:25 33.99108 -117.84631 8564 ft 289 kts 261°
2026-04-20 00:26 33.98877 -117.87039 8116 ft 289 kts 260°
2026-04-20 00:26 33.98645 -117.89441 7722 ft 287 kts 260°
2026-04-20 00:26 33.98412 -117.91813 7370 ft 285 kts 260°
2026-04-20 00:26 33.98177 -117.94177 7011 ft 283 kts 260°
2026-04-20 00:27 33.97942 -117.96519 6644 ft 280 kts 260°
2026-04-20 00:27 33.97709 -117.98830 6303 ft 277 kts 260°
2026-04-20 00:27 33.97474 -118.01125 5997 ft 273 kts 260°
2026-04-20 00:27 33.97238 -118.03384 5675 ft 270 kts 260°
2026-04-20 00:28 33.97090 -118.04858 5446 ft 269 kts 260°
2026-04-20 00:28 33.96795 -118.07854 4984 ft 268 kts 261°
2026-04-20 00:28 33.96648 -118.09334 4753 ft 267 kts 261°
2026-04-20 00:28 33.96428 -118.11549 4397 ft 266 kts 261°
2026-04-20 00:29 33.96208 -118.13747 4052 ft 264 kts 261°
2026-04-20 00:29 33.95992 -118.15911 3708 ft 258 kts 261°
2026-04-20 00:29 33.95782 -118.18019 3395 ft 249 kts 261°
2026-04-20 00:29 33.95578 -118.20051 3078 ft 239 kts 261°
2026-04-20 00:30 33.95380 -118.22024 2789 ft 230 kts 261°
2026-04-20 00:30 33.95192 -118.23877 2482 ft 220 kts 261°
2026-04-20 00:30 33.95012 -118.25670 2189 ft 209 kts 261°
2026-04-20 00:30 33.94846 -118.27331 1927 ft 190 kts 261°
2026-04-20 00:31 33.94694 -118.28832 1701 ft 170 kts 261°
2026-04-20 00:31 33.94558 -118.30173 1463 ft 156 kts 261°
2026-04-20 00:31 33.94428 -118.31452 1272 ft 152 kts 262°
2026-04-20 00:31 33.94306 -118.32698 1078 ft 148 kts 262°
2026-04-20 00:32 33.94178 -118.33921 861 ft 146 kts 263°
2026-04-20 00:32 33.94061 -118.34889 679 ft 143 kts 262°
2026-04-20 00:32 33.93943 -118.36084 524 ft 144 kts 267°
2026-04-20 00:32 33.93838 -118.37287 328 ft 144 kts 262°
2026-04-20 00:33 33.93718 -118.38486 132 ft 143 kts 261°
2026-04-20 00:33 33.93598 -118.39565 110 ft 113 kts 263°
2026-04-20 00:33 33.93534 -118.40305 111 ft 63 kts 268°
2026-04-20 00:33 33.93583 -118.40620 108 ft 22 kts 289°
2026-04-20 00:34 33.93594 -118.40679 106 ft 1 kts 274°
2026-04-20 00:34 33.93595 -118.40688 105 ft 0 kts 274°
2026-04-20 00:34 33.93593 -118.40718 106 ft 7 kts 266°
2026-04-20 00:34 33.93593 -118.40786 105 ft 9 kts 278°
2026-04-20 00:35 33.93605 -118.40833 105 ft 0 kts 290°
2026-04-20 00:35 33.93605 -118.40836 105 ft 1 kts 291°
2026-04-20 00:35 33.93624 -118.40875 107 ft 11 kts 312°
2026-04-20 00:35 33.93732 -118.40906 106 ft 18 kts 353°
2026-04-20 00:36 33.93786 -118.40874 101 ft 8 kts 63°
2026-04-20 00:36 33.93797 -118.40799 102 ft 10 kts 80°
2026-04-20 00:36 33.93850 -118.40740 101 ft 13 kts 20°
2026-04-20 00:36 33.93899 -118.40676 99 ft 11 kts 83°
2026-04-20 00:37 33.93908 -118.40635 99 ft 1 kts 60°
2026-04-20 00:37 33.93917 -118.40631 98 ft 2 kts 19°
2026-04-20 00:37 33.93936 -118.40637 99 ft 2 kts 358°
2026-04-20 00:37 33.93947 -118.40640 99 ft 3 kts 346°
2026-04-20 00:38 33.93956 -118.40643 98 ft 0 kts 345°